Time,TemperatureF,DewpointF,PressureIn,WindDirection,WindDirectionDegrees,WindSpeedMPH,WindSpeedGustMPH,Humidity,HourlyPrecipIn,Conditions,Clouds,dailyrainin,SolarRadiationWatts/m^2,SoftwareType,DateUTC
2013-11-22 00:02:00,15.0,12.0,-100.00,NNE,24,3.0,5.0,89,0.00,,,0.12,0.000000,,2013-11-22 07:02:00,
2013-11-22 00:12:00,15.0,12.0,-100.00,NNE,24,3.0,5.0,89,0.00,,,0.12,0.000000,,2013-11-22 07:12:00,
2013-11-22 00:21:00,15.0,12.0,-100.00,NNE,24,3.0,5.0,89,0.00,,,0.12,0.000000,,2013-11-22 07:21:00,
2013-11-22 00:52:00,14.0,11.0,-100.00,North,7,3.0,5.0,88,0.00,,,0.12,0.000000,,2013-11-22 07:52:00,
2013-11-22 01:01:00,14.0,11.0,-100.00,North,7,3.0,5.0,88,0.00,,,0.12,0.000000,,2013-11-22 08:01:00,
2013-11-22 01:11:00,14.0,11.0,-100.00,North,7,3.0,5.0,88,0.00,,,0.12,0.000000,,2013-11-22 08:11:00,
2013-11-22 01:21:00,14.0,11.0,-100.00,North,7,3.0,5.0,88,0.00,,,0.12,0.000000,,2013-11-22 08:21:00,
2013-11-22 01:52:00,13.0,10.0,-100.00,NE,46,2.0,4.0,88,0.00,,,0.12,0.000000,,2013-11-22 08:52:00,
2013-11-22 02:02:00,13.0,10.0,-100.00,NE,46,2.0,4.0,88,0.00,,,0.12,0.000000,,2013-11-22 09:02:00,
2013-11-22 02:11:00,13.0,10.0,-100.00,NE,46,2.0,4.0,88,0.00,,,0.12,0.000000,,2013-11-22 09:11:00,
2013-11-22 02:21:00,13.0,10.0,-100.00,NE,46,2.0,4.0,88,0.00,,,0.12,0.000000,,2013-11-22 09:21:00,
2013-11-22 02:23:00,12.0,9.0,-100.00,NE,43,2.0,4.0,87,0.00,,,0.12,0.000000,,2013-11-22 09:23:00,
2013-11-22 02:53:00,12.0,9.0,-100.00,NE,43,2.0,4.0,87,0.00,,,0.12,0.000000,,2013-11-22 09:53:00,
2013-11-22 03:03:00,12.0,9.0,-100.00,NE,43,2.0,4.0,87,0.00,,,0.12,0.000000,,2013-11-22 10:03:00,
2013-11-22 03:13:00,12.0,9.0,-100.00,NE,43,2.0,4.0,87,0.00,,,0.12,0.000000,,2013-11-22 10:13:00,
2013-11-22 03:53:00,12.0,9.0,-100.00,NE,51,0.0,4.0,87,0.00,,,0.12,0.000000,,2013-11-22 10:53:00,
2013-11-22 04:02:00,12.0,9.0,-100.00,NE,51,0.0,4.0,87,0.00,,,0.12,0.000000,,2013-11-22 11:02:00,
2013-11-22 04:12:00,12.0,9.0,-100.00,NE,51,0.0,4.0,87,0.00,,,0.12,0.000000,,2013-11-22 11:12:00,
2013-11-22 04:22:00,12.0,9.0,-100.00,NE,51,0.0,4.0,87,0.00,,,0.12,0.000000,,2013-11-22 11:22:00,
2013-11-22 04:52:00,12.0,9.0,-100.00,NE,48,0.0,2.0,87,0.00,,,0.12,0.000000,,2013-11-22 11:52:00,
2013-11-22 05:02:00,12.0,9.0,-100.00,NE,48,0.0,2.0,87,0.00,,,0.12,0.000000,,2013-11-22 12:02:00,
2013-11-22 05:12:00,12.0,9.0,-100.00,NE,48,0.0,2.0,87,0.00,,,0.12,0.000000,,2013-11-22 12:12:00,
2013-11-22 05:22:00,12.0,9.0,-100.00,NE,48,0.0,2.0,87,0.00,,,0.12,0.000000,,2013-11-22 12:22:00,
2013-11-22 05:52:00,13.0,10.0,-100.00,North,4,1.0,3.0,88,0.00,,,0.12,0.000000,,2013-11-22 12:52:00,
2013-11-22 06:02:00,13.0,10.0,-100.00,North,4,1.0,3.0,88,0.00,,,0.12,0.000000,,2013-11-22 13:02:00,
2013-11-22 06:11:00,13.0,10.0,-100.00,North,4,1.0,3.0,88,0.00,,,0.12,0.000000,,2013-11-22 13:11:00,
2013-11-22 06:22:00,13.0,10.0,-100.00,North,4,1.0,3.0,88,0.00,,,0.12,0.000000,,2013-11-22 13:22:00,
2013-11-22 06:52:00,13.0,10.0,-100.00,East,82,0.0,3.0,88,0.00,,,0.12,0.000000,,2013-11-22 13:52:00,
2013-11-22 07:02:00,13.0,10.0,-100.00,East,82,0.0,3.0,88,0.00,,,0.12,0.000000,,2013-11-22 14:02:00,
2013-11-22 07:11:00,13.0,10.0,-100.00,East,82,0.0,3.0,88,0.00,,,0.12,0.000000,,2013-11-22 14:11:00,
2013-11-22 07:22:00,13.0,10.0,-100.00,East,82,0.0,3.0,88,0.00,,,0.12,0.000000,,2013-11-22 14:22:00,
2013-11-22 07:52:00,14.0,11.0,-100.00,North,5,0.0,0.0,88,0.00,,,0.12,0.000000,,2013-11-22 14:52:00,
2013-11-22 08:02:00,14.0,11.0,-100.00,North,5,0.0,0.0,88,0.00,,,0.12,0.000000,,2013-11-22 15:02:00,
2013-11-22 08:11:00,14.0,11.0,-100.00,North,5,0.0,0.0,88,0.00,,,0.12,0.000000,,2013-11-22 15:11:00,
2013-11-22 08:22:00,14.0,11.0,-100.00,North,5,0.0,0.0,88,0.00,,,0.12,0.000000,,2013-11-22 15:22:00,
2013-11-22 08:23:00,17.0,14.0,-100.00,SE,132,0.0,2.0,87,0.00,,,0.12,9.000000,,2013-11-22 15:23:00,
2013-11-22 08:54:00,17.0,14.0,-100.00,SE,132,0.0,2.0,87,0.00,,,0.12,9.000000,,2013-11-22 15:54:00,
2013-11-22 09:03:00,17.0,14.0,-100.00,SE,132,0.0,2.0,87,0.00,,,0.12,9.000000,,2013-11-22 16:03:00,
2013-11-22 09:13:00,17.0,14.0,-100.00,SE,132,0.0,2.0,87,0.00,,,0.12,9.000000,,2013-11-22 16:13:00,
2013-11-22 09:53:00,18.0,14.0,-100.00,SE,139,2.0,3.0,85,0.00,,,0.12,21.000000,,2013-11-22 16:53:00,
2013-11-22 10:03:00,18.0,14.0,-100.00,SE,139,2.0,3.0,85,0.00,,,0.12,21.000000,,2013-11-22 17:03:00,
2013-11-22 10:12:00,18.0,14.0,-100.00,SE,139,2.0,3.0,85,0.00,,,0.12,21.000000,,2013-11-22 17:12:00,
2013-11-22 10:22:00,18.0,14.0,-100.00,SE,139,2.0,3.0,85,0.00,,,0.12,21.000000,,2013-11-22 17:22:00,
2013-11-22 10:52:00,21.0,16.0,-100.00,ESE,117,1.0,3.0,82,0.00,,,0.12,31.000000,,2013-11-22 17:52:00,
2013-11-22 11:02:00,21.0,16.0,-100.00,ESE,117,1.0,3.0,82,0.00,,,0.12,31.000000,,2013-11-22 18:02:00,
2013-11-22 11:12:00,21.0,16.0,-100.00,ESE,117,1.0,3.0,82,0.00,,,0.12,31.000000,,2013-11-22 18:12:00,
2013-11-22 11:21:00,21.0,16.0,-100.00,ESE,117,1.0,3.0,82,0.00,,,0.12,31.000000,,2013-11-22 18:21:00,
2013-11-22 11:52:00,24.0,18.0,-100.00,East,94,1.0,3.0,79,0.00,,,0.03,37.000000,,2013-11-22 18:52:00,
2013-11-22 12:01:00,24.0,18.0,-100.00,East,94,1.0,3.0,79,0.00,,,0.03,37.000000,,2013-11-22 19:01:00,
2013-11-22 12:11:00,24.0,18.0,-100.00,East,94,1.0,3.0,79,0.00,,,0.03,37.000000,,2013-11-22 19:11:00,
2013-11-22 12:21:00,24.0,18.0,-100.00,East,94,1.0,3.0,79,0.00,,,0.03,37.000000,,2013-11-22 19:21:00,
2013-11-22 12:52:00,23.0,19.0,-100.00,ESE,112,0.0,3.0,83,0.00,,,0.01,25.000000,,2013-11-22 19:52:00,
2013-11-22 13:02:00,23.0,19.0,-100.00,ESE,112,0.0,3.0,83,0.00,,,0.01,25.000000,,2013-11-22 20:02:00,
2013-11-22 13:11:00,23.0,19.0,-100.00,ESE,112,0.0,3.0,83,0.00,,,0.01,25.000000,,2013-11-22 20:11:00,
2013-11-22 13:21:00,23.0,19.0,-100.00,ESE,112,0.0,3.0,83,0.00,,,0.01,25.000000,,2013-11-22 20:21:00,
2013-11-22 13:52:00,24.0,20.0,-100.00,SE,134,0.0,3.0,84,0.00,,,0.00,15.000000,,2013-11-22 20:52:00,
2013-11-22 14:02:00,24.0,20.0,-100.00,SE,134,0.0,3.0,84,0.00,,,0.00,15.000000,,2013-11-22 21:02:00,
2013-11-22 14:11:00,24.0,20.0,-100.00,SE,134,0.0,3.0,84,0.00,,,0.00,15.000000,,2013-11-22 21:11:00,
2013-11-22 14:22:00,24.0,20.0,-100.00,SE,134,0.0,3.0,84,0.00,,,0.00,15.000000,,2013-11-22 21:22:00,
2013-11-22 14:23:00,23.0,20.0,-100.00,ESE,104,0.0,2.0,87,0.00,,,0.00,12.000000,,2013-11-22 21:23:00,
2013-11-22 14:53:00,23.0,20.0,-100.00,ESE,104,0.0,2.0,87,0.00,,,0.00,12.000000,,2013-11-22 21:53:00,
2013-11-22 15:03:00,23.0,20.0,-100.00,ESE,104,0.0,2.0,87,0.00,,,0.00,12.000000,,2013-11-22 22:03:00,
2013-11-22 15:13:00,23.0,20.0,-100.00,ESE,104,0.0,2.0,87,0.00,,,0.00,12.000000,,2013-11-22 22:13:00,
2013-11-22 15:53:00,24.0,21.0,-100.00,SE,129,0.0,0.0,88,0.00,,,0.00,8.000000,,2013-11-22 22:53:00,
2013-11-22 16:02:00,24.0,21.0,-100.00,SE,129,0.0,0.0,88,0.00,,,0.00,8.000000,,2013-11-22 23:02:00,
2013-11-22 16:12:00,24.0,21.0,-100.00,SE,129,0.0,0.0,88,0.00,,,0.00,8.000000,,2013-11-22 23:12:00,
2013-11-22 16:22:00,24.0,21.0,-100.00,SE,129,0.0,0.0,88,0.00,,,0.00,8.000000,,2013-11-22 23:22:00,
2013-11-22 16:53:00,24.0,22.0,-100.00,SW,236,0.0,0.0,91,0.00,,,0.00,4.000000,,2013-11-22 23:53:00,
2013-11-22 17:02:00,24.0,22.0,-100.00,SW,236,0.0,0.0,91,0.00,,,0.00,4.000000,,2013-11-23 00:02:00,
2013-11-22 17:11:00,24.0,22.0,-100.00,SW,236,0.0,0.0,91,0.00,,,0.00,4.000000,,2013-11-23 00:11:00,
2013-11-22 17:21:00,24.0,22.0,-100.00,SW,236,0.0,0.0,91,0.00,,,0.00,4.000000,,2013-11-23 00:21:00,
2013-11-22 17:52:00,24.0,23.0,-100.00,SSW,210,2.0,3.0,94,0.00,,,0.00,0.000000,,2013-11-23 00:52:00,
2013-11-22 18:02:00,24.0,23.0,-100.00,SSW,210,2.0,3.0,94,0.00,,,0.00,0.000000,,2013-11-23 01:02:00,
2013-11-22 18:11:00,24.0,23.0,-100.00,SSW,210,2.0,3.0,94,0.00,,,0.00,0.000000,,2013-11-23 01:11:00,
2013-11-22 18:21:00,24.0,23.0,-100.00,SSW,210,2.0,3.0,94,0.00,,,0.00,0.000000,,2013-11-23 01:21:00,
2013-11-22 18:53:00,24.0,22.0,-100.00,SSW,205,4.0,7.0,91,0.00,,,0.00,0.000000,,2013-11-23 01:53:00,
2013-11-22 19:02:00,24.0,22.0,-100.00,SSW,205,4.0,7.0,91,0.00,,,0.00,0.000000,,2013-11-23 02:02:00,
2013-11-22 19:11:00,24.0,22.0,-100.00,SSW,205,4.0,7.0,91,0.00,,,0.00,0.000000,,2013-11-23 02:11:00,
2013-11-22 19:22:00,24.0,22.0,-100.00,SSW,205,4.0,7.0,91,0.00,,,0.00,0.000000,,2013-11-23 02:22:00,
2013-11-22 19:53:00,24.0,22.0,-100.00,SSW,200,3.0,7.0,92,0.00,,,0.00,0.000000,,2013-11-23 02:53:00,
2013-11-22 20:02:00,24.0,22.0,-100.00,SSW,200,3.0,7.0,92,0.00,,,0.00,0.000000,,2013-11-23 03:02:00,
2013-11-22 20:11:00,24.0,22.0,-100.00,SSW,200,3.0,7.0,92,0.00,,,0.00,0.000000,,2013-11-23 03:11:00,
2013-11-22 20:22:00,24.0,22.0,-100.00,SSW,200,3.0,7.0,92,0.00,,,0.00,0.000000,,2013-11-23 03:22:00,
2013-11-22 20:23:00,23.0,21.0,-100.00,WNW,294,0.0,7.0,91,0.00,,,0.00,0.000000,,2013-11-23 03:23:00,
2013-11-22 20:53:00,23.0,21.0,-100.00,WNW,294,0.0,7.0,91,0.00,,,0.00,0.000000,,2013-11-23 03:53:00,
2013-11-22 21:02:00,23.0,21.0,-100.00,WNW,294,0.0,7.0,91,0.00,,,0.00,0.000000,,2013-11-23 04:02:00,
2013-11-22 21:13:00,23.0,21.0,-100.00,WNW,294,0.0,7.0,91,0.00,,,0.00,0.000000,,2013-11-23 04:13:00,
2013-11-22 21:53:00,23.0,21.0,-100.00,SW,223,3.0,7.0,91,0.00,,,0.00,0.000000,,2013-11-23 04:53:00,
2013-11-22 22:03:00,23.0,21.0,-100.00,SW,223,3.0,7.0,91,0.00,,,0.00,0.000000,,2013-11-23 05:03:00,
2013-11-22 22:12:00,23.0,21.0,-100.00,SW,223,3.0,7.0,91,0.00,,,0.00,0.000000,,2013-11-23 05:12:00,
2013-11-22 22:22:00,23.0,21.0,-100.00,SW,223,3.0,7.0,91,0.00,,,0.00,0.000000,,2013-11-23 05:22:00,
2013-11-22 22:53:00,22.0,19.0,-100.00,NW,320,4.0,9.0,88,0.00,,,0.00,0.000000,,2013-11-23 05:53:00,
2013-11-22 23:02:00,22.0,19.0,-100.00,NW,320,4.0,9.0,88,0.00,,,0.00,0.000000,,2013-11-23 06:02:00,
2013-11-22 23:12:00,22.0,19.0,-100.00,NW,320,4.0,9.0,88,0.00,,,0.00,0.000000,,2013-11-23 06:12:00,
2013-11-22 23:22:00,22.0,19.0,-100.00,NW,320,4.0,9.0,88,0.00,,,0.00,0.000000,,2013-11-23 06:22:00,
2013-11-22 23:53:00,21.0,18.0,-100.00,NNW,341,4.0,8.0,89,0.00,,,-99.99,0.000000,,2013-11-23 06:53:00,